Overview Statistics Trail Chart Weather Telemetry Raw packets
 

This is the latest recevied weather packets stored in our database for station/object LU3HGB-WX. If no packets are shown the sender has not sent any weather packets the latest 10 day(s).

<< 59 60 61 62 63 64 65 >>
Time Temp. Humidity Pressure Rain* Wind** Luminosity Snow
1788277360 22.22° C 24% 1020 hPa 0 mm - 913 W/m² -
1788277060 22.22° C 26% 1020 hPa 0 mm - 907 W/m² -
1788276760 22.22° C 25% 1020 hPa 0 mm - 901 W/m² -
1788276460 22.22° C 24% 1020 hPa 0 mm - 893 W/m² -
1788276160 21.67° C 26% 1020 hPa 0 mm - 887 W/m² -
1788275860 21.67° C 25% 1020 hPa 0 mm - 880 W/m² -
1788275560 21.67° C 27% 1020 hPa 0 mm - 870 W/m² -
1788275260 21.67° C 26% 1020 hPa 0 mm - 862 W/m² -
1788274722 21.11° C 30% 1020 hPa 0 mm - 842 W/m² -
1788274359 20.56° C 29% 1021 hPa 0 mm - 828 W/m² -
1788274060 20° C 29% 1021 hPa 0 mm - 812 W/m² -
1788273761 20° C 28% 1021 hPa 0 mm - 812 W/m² -
1788273461 20° C 33% 1021 hPa 0 mm - 794 W/m² -
1788273160 19.44° C 31% 1021 hPa 0 mm - 781 W/m² -
1788272860 19.44° C 32% 1021 hPa 0 mm - 765 W/m² -
1788272560 19.44° C 29% 1021 hPa 0 mm - 753 W/m² -
1788272260 19.44° C 33% 1021 hPa 0 mm - 738 W/m² -
1788271960 19.44° C 34% 1021 hPa 0 mm - 722 W/m² -
1788271659 18.89° C 35% 1021 hPa 0 mm - 707 W/m² -
1788271360 18.33° C 34% 1021 hPa 0 mm - 692 W/m² -
1788271060 17.78° C 34% 1021 hPa 0 mm - 671 W/m² -
1788270760 17.22° C 35% 1021 hPa 0 mm - 656 W/m² -
1788270460 17.22° C 37% 1021 hPa 0 mm - 643 W/m² -
1788270160 17.22° C 36% 1021 hPa 0 mm - 624 W/m² -
1788269860 16.67° C 43% 1021 hPa 0 mm - 605 W/m² -

* Rain latest hour (hover to see other rain measurements)
** Current wind speed in m/s (hover to see current wind gust speed)